Content
SEND FEEDBACK

Daily
Averages
Monthly
Summary
United States of America

MILLINGTON, TENNESSEE


Home > North America > United States > Tennessee
Elevation: 318 feet     Latitude: 35 21N     Longitude: 089 52W

WEATHER
 
SELECT A DAY
Number of Records: 274,994;   Date Range: 1/2/95 - 7/29/14
 
SHARE

PRINT THIS DATA

[ ← Previous Day ]
WEATHER ALMANAC - JANUARY 31, 2013
[ Next Day → ]
[ °C ]   °F
Weather ElementAverageHighLow
Temperature36.8 °F53.6 °F (3:55 pm)28.4 °F (2:55 am)
Dewpoint27.5 °F35.6 °F (6:55 pm)23 °F (2:15 am)
Humidity71.1 %87 % (9:55 pm)43 % (12:55 pm)
Barometer30.12 in30.31 in (10:20 pm)30.05 in (1:55 am)
Wind Speed7.9 mph16.1 mph (10:20 pm)
Weather ElementAverage
Visibility9.8 mi
Wind DirectionSW (223.9 °)

Weather ElementTotal
Precipitation---
Heating Degree Days24 (Base 65)
Averaged from 28 records on January 31, 2013
WEATHER CONDITIONS BREAKOUT
WIND DIRECTION BREAKOUT
WEATHER BY HOUR - JANUARY 31, 2013
[ °C ]   °F
Local TimeTemperatureDewpointHumidityBarometerVisibilityWind DirectionWind SpeedGust SpeedPrecipitationEventsConditions
1:55 AM30.2 °F24.8 °F80 %30.05 in10.0 miWest (270°)8.1 mphClear
2:15 AM30.2 °F23.0 °F75 %30.05 in10.0 miWest (260°)4.6 mphClear
2:35 AM30.2 °F23.0 °F75 %30.06 in10.0 miWSW (250°)5.8 mphClear
2:55 AM28.4 °F23.0 °F80 %30.06 in10.0 miWSW (240°)4.6 mphClear
3:15 AM30.2 °F24.8 °F80 %30.06 in10.0 miSW (230°)5.8 mphClear
3:35 AM28.4 °F24.8 °F86 %30.05 in10.0 miSW (230°)5.8 mphClear
3:55 AM28.4 °F24.8 °F86 %30.05 in10.0 miCalmClear
4:15 AM28.4 °F24.8 °F86 %30.06 in10.0 miWSW (250°)4.6 mphClear
4:35 AM28.4 °F24.8 °F86 %30.06 in10.0 miWSW (250°)5.8 mphClear
4:55 AM28.4 °F24.8 °F86 %30.06 in10.0 miCalmClear
5:55 AM28.4 °F24.8 °F86 %30.10 in10.0 miSW (220°)5.8 mphClear
6:55 AM28.4 °F23.0 °F80 %30.12 in10.0 miSW (230°)3.5 mphClear
7:55 AM30.2 °F26.6 °F86 %30.15 in10.0 miWSW (250°)5.8 mphClear
8:55 AM35.6 °F26.6 °F70 %30.17 in10.0 miWSW (250°)8.1 mphClear
9:55 AM39.2 °F26.6 °F61 %30.18 in10.0 miSSW (210°)10.4 mphClear
10:55 AM42.8 °F26.6 °F53 %30.17 in10.0 miSW (230°)11.5 mphClear
11:55 AM44.6 °F26.6 °F49 %30.14 in10.0 miVariable6.9 mphClear
12:55 PM48.2 °F26.6 °F43 %30.10 in10.0 miSSW (200°)10.4 mphClear
1:55 PM51.8 °F30.2 °F44 %30.07 in10.0 miSW (220°)11.5 mphClear
2:55 PM51.8 °F33.8 °F50 %30.06 in10.0 miSSW (210°)12.7 mphPartly Cloudy
3:55 PM53.6 °F33.8 °F47 %30.07 in10.0 miSSW (210°)13.8 mphPartly Cloudy
4:55 PM51.8 °F33.8 °F50 %30.08 in10.0 miSW (220°)10.4 mphPartly Cloudy
5:55 PM48.2 °F33.8 °F58 %30.09 in10.0 miSW (220°)6.9 mphScattered Clouds
6:55 PM46.4 °F35.6 °F66 %30.11 in10.0 miNW (320°)4.6 mphMostly Cloudy
8:55 PM39.2 °F32.0 °F75 %30.22 in10.0 miNNW (340°)10.4 mphOvercast
9:55 PM35.6 °F32.0 °F87 %30.28 in10.0 miNW (320°)15.0 mphMostly Cloudy
10:20 PM33.8 °F30.2 °F87 %30.31 in7.0 miNNW (330°)16.1 mphSnowLight Snow
10:55 PM30.2 °F24.8 °F80 %30.31 in7.0 miNW (310°)12.7 mphSnowLight Snow
Hourly data recorded from KNQA, located miles away from Millington, Tennessee







STORIES FROM OUR PARTNERS